Погода в Флурё

Норвегия     61°35′58″N   5°01′48″E
темп.,
°C
ветер,
м/с
пор.,
м/с
влажн.,
%
обл.,
%
осадки,
мм/ч
давл.,
гПа
погр.,
м
6 августа, пт
пт623:00+15ю2279100 0.0 101024
02:00+15вюв2277100 0.0 101019
05:00+15в2274100 0.0 100940
08:00+15в337211 0.0 100963
11:00+17ссв22635 0.0 1008174
14:00+16с547031 0.0 1008333
17:00+17с577169 0.0 100793
20:00+17ссв337091 0.0 100625
7 августа, сб
сб723:00+17юв446546 0.0 100618
02:00+16вюв556726 0.0 100641
05:00+16вюв566943 0.0 100554
08:00+16вюв4569100 0.0 100550
11:00+18в3457100 0.0 1005259
14:00+18ссв2361100 0.0 1004348
17:00+18зсз3365100 0.0 100338
20:00+15з228090 0.1 100550
8 августа, вс
вс823:00+15ссв458387 0.0 1004141
02:00+15св4581100 0.0 1003122
05:00+15вюв2276100 0.0 100328
08:00+16в2270100 0.0 100323
11:00+17св116515 0.0 1003162
14:00+17ссз44676 0.0 1003165
17:00+16с457518 0.0 1004206
20:00+15с457999 0.0 1003116
9 августа, пн
пн923:00+16св337398 0.0 100433
02:00+16юв337019 0.0 100419
05:00+15юв447410 0.0 100450
08:00+16ююв337126 0.0 100533
11:00+16зюз227342 0.0 1006102
14:00+16зюз227644 0.0 1007164
17:00+16юз458026 0.0 1009278
20:00+15ююз669065 0.0 1010315
10 августа, вт
вт1023:00+15юз2291100 0.0 101157
02:00+15ю019193 0.1 101125
05:00+14в118946 0.0 101024
08:00+15св118792 0.0 101164
11:00+15ссз228726 0.0 1011210
14:00+15с338620 0.0 1011320
17:00+14с458521 0.0 1011320
20:00+15с688573 0.0 1010354